Weather History for Willimantic, CT

Change the Weather History Date:

Thursday, February 7, 2013

  Actual Average Record
Temperature  
Mean Temperature 24 °F -  
Max Temperature 33 °F 33 °F 55 °F (1991)
Min Temperature 15 °F 12 °F -11 °F (1966)
Degree Days  
Heating Degree Days 41    
Moisture  
Dew Point 5 °F    
Average Humidity 42    
Maximum Humidity 70    
Minimum Humidity 27    
Precipitation  
Precipitation 0.00 in - - ()
Sea Level Pressure  
Sea Level Pressure 30.46 in    
Wind  
Wind Speed 3 mph (North)    
Max Wind Speed 7 mph    
Max Gust Speed -    
Visibility 10 miles    
Events      
Averages and records for this station are not official NWS values.
T = Trace of Precipitation, MM = Missing Value Source: NWS Daily Summary

Daily Weather History Graph

Daily Weather History Graph

Search for Another Location

Airport:

Trip Planner

Search our weather history database for the weather conditions in past years. The results will help you decide how hot, cold, wet, or windy it might be!

Date:

Astronomy

Feb. 07, 2013 Rise Set
Actual Time 6:54 AM EST 5:12 PM EST
Civil Twilight 6:25 AM EST 5:41 PM EST
Nautical Twilight 5:52 AM EST 6:14 PM EST
Astronomical Twilight 5:19 AM EST 6:46 PM EST
Moon 4:32 AM EST (2/7) 2:32 PM EST (2/7)
Length of Visible Light 11h 16m
Length of Day
10h 18m
Waning Crescent, 9% of the Moon is Illuminated
Feb 7
Waning Crescent
Feb 10
New
Feb 17
First Quarter
Feb 25
Full
Mar 4
Last Quarter

Hourly Weather History & Observations

Time (EST) Temp. Windchill Dew Point Humidity Pressure Visibility Wind Dir Wind Speed Gust Speed Precip Events Conditions
12:52 AM 24.1 °F 18.2 °F 1.0 °F 37% 30.35 in 10.0 mi NW 4.6 mph - N/A   Clear
1:52 AM 23.0 °F 18.4 °F 3.0 °F 42% 30.36 in 10.0 mi WNW 3.5 mph - N/A   Clear
2:52 AM 21.9 °F 17.2 °F 3.0 °F 44% 30.38 in 10.0 mi WNW 3.5 mph - N/A   Clear
3:52 AM 21.0 °F 16.2 °F 5.0 °F 50% 30.39 in 10.0 mi NNW 3.5 mph - N/A   Clear
4:52 AM 19.0 °F - 5.0 °F 54% 30.42 in 10.0 mi Calm Calm - N/A   Clear
5:52 AM 17.1 °F - 6.1 °F 62% 30.43 in 10.0 mi Calm Calm - N/A   Clear
6:52 AM 15.1 °F - 7.0 °F 70% 30.45 in 10.0 mi Calm Calm - N/A   Clear
7:52 AM 18.0 °F - 7.0 °F 62% 30.50 in 10.0 mi Calm Calm - N/A   Clear
8:52 AM 21.0 °F 14.6 °F 6.1 °F 53% 30.52 in 10.0 mi NE 4.6 mph - N/A   Overcast
9:52 AM 24.1 °F 17.0 °F 3.9 °F 42% 30.53 in 10.0 mi NNW 5.8 mph - N/A   Partly Cloudy
10:52 AM 26.1 °F - 1.9 °F 35% 30.53 in 10.0 mi Calm Calm - N/A   Scattered Clouds
11:52 AM 28.0 °F 22.8 °F 1.9 °F 33% 30.51 in 10.0 mi NE 4.6 mph - N/A   Clear
12:52 PM 30.9 °F - 1.9 °F 29% 30.48 in 10.0 mi Calm Calm - N/A   Clear
1:52 PM 32.0 °F 28.7 °F 1.9 °F 28% 30.47 in 10.0 mi North 3.5 mph - N/A   Clear
2:52 PM 33.1 °F - 1.9 °F 27% 30.46 in 10.0 mi Calm Calm - N/A   Clear
3:52 PM 33.1 °F 28.7 °F 3.0 °F 28% 30.45 in 10.0 mi SSW 4.6 mph - N/A   Clear
4:52 PM 30.9 °F 27.5 °F 3.0 °F 31% 30.46 in 10.0 mi SSE 3.5 mph - N/A   Clear
5:52 PM 30.0 °F - 3.9 °F 33% 30.46 in 10.0 mi Calm Calm - N/A   Mostly Cloudy
6:52 PM 30.0 °F 23.2 °F 7.0 °F 38% 30.47 in 10.0 mi SE 6.9 mph - N/A   Overcast
7:52 PM 28.9 °F 22.8 °F 9.0 °F 43% 30.48 in 10.0 mi SSE 5.8 mph - N/A   Overcast
8:52 PM 28.0 °F - 7.0 °F 41% 30.47 in 10.0 mi Calm Calm - N/A   Partly Cloudy
9:52 PM 27.0 °F - 7.0 °F 43% 30.47 in 10.0 mi Calm Calm - N/A   Partly Cloudy
10:52 PM 27.0 °F 23.0 °F 8.1 °F 45% 30.48 in 10.0 mi Variable 3.5 mph - N/A   Clear
11:52 PM 26.1 °F 18.4 °F 5.0 °F 41% 30.46 in 10.0 mi East 6.9 mph - N/A   Scattered Clouds